Regional Weather Roundup
Issued by NWS

Home | Current Version | Previous Version | Graphics & Text | Print | Product List | Glossary On
Versions: 1 2 3 4 5 6 7 8 9 10 11 12 13 14 15 16 17 18 19 20 21 22 23 24 25 26 27 28 29 30 31 32 33 34 35 36 37 38 39 40 41 42 43 44 45 46 47 48 49 50
843
ASUS43 KOAX 200202
RWRNE

WEATHER ROUNDUP FOR NEBRASKA
NATIONAL WEATHER SERVICE OMAHA NE
900 PM CDT SAT AUG 19 2017

NOTES: SATELLITE DATA IS BEING USED TO AUGMENT CLOUD COVER ABOVE
       12000 FEET.
       "FAIR" INDICATES FEW OR NO CLOUDS BELOW 12,000 FEET WITH NO
       SIGNIFICANT WEATHER AND/OR OBSTRUCTIONS TO VISIBILITY.


NEZ001>004-019>022-054>056-200300-
NEBRASKA PANHANDLE

CITY           SKY/WX    TMP DP  RH WIND       PRES   REMARKS
SCOTTSBLUFF    CLEAR     75  55  49 NE8       29.90R
ALLIANCE       CLEAR     74  53  48 E8        29.90R
CHADRON        CLEAR     79  50  36 CALM      29.84R
GORDON         FAIR      75  57  54 CALM      29.88R
KIMBALL        CLEAR     73  43  33 E8        30.00R
SIDNEY         CLEAR     77  51  40 E8        29.96R
$$

NEZ057>060-069>072-079>082-200300-
SOUTHWEST NEBRASKA

CITY           SKY/WX    TMP DP  RH WIND       PRES   REMARKS
NORTH PLATTE   CLEAR     81  68  64 S5        29.81R
IMPERIAL       CLEAR     81  62  52 SW5       29.85S
LEXINGTON      CLOUDY    80  64  59 SE9       29.83R
MCCOOK         CLEAR     84  59  42 S13       29.82R
OGALLALA       CLEAR     77  61  58 CALM      29.86S
$$

NEZ005>010-023>029-035>040-094-200300-
NORTH CENTRAL NEBRASKA

CITY           SKY/WX    TMP DP  RH WIND       PRES   REMARKS
VALENTINE      CLEAR     84  51  31 NE5       29.82R
AINSWORTH      CLOUDY    76  63  63 S12       29.85R
BROKEN BOW     CLOUDY    83  65  54 S15       29.79F
O`NEILL        LGT RAIN  80  69  71 SW5       29.83S
ORD            CLOUDY    79  69  71 NE10      29.84R THUNDER
THEDFORD       PTCLDY    85  64  48 CALM      29.85R
$$

NEZ041-046>049-061>064-073>077-083>087-200300-
SOUTH CENTRAL NEBRASKA

CITY           SKY/WX    TMP DP  RH WIND       PRES   REMARKS
GRAND ISLAND   CLOUDY    80  72  76 S13       29.83R
AURORA         CLOUDY    78  71  79 SE10      29.84R
HASTINGS       CLEAR     81  69  67 SE9       29.86R
HEBRON         PTCLDY    79  70  74 SE5       29.84R
HOLDREGE       CLEAR     75  64  67 SE8       29.83R
KEARNEY        CLOUDY    78  64  61 SE9       29.84R
YORK           PTCLDY    77  68  73 SE9       29.85R
$$

NEZ011>018-030>034-042>045-200300-
NORTHEAST NEBRASKA

CITY           SKY/WX    TMP DP  RH WIND       PRES   REMARKS
NORFOLK        CLOUDY    74  66  76 S8        29.87R
ALBION         TSTM      78  71  80 N10       29.92R
BLAIR          CLEAR     75  62  62 SE6       29.88R
COLUMBUS       CLOUDY    73  67  81 E7        29.86R
FREMONT        CLOUDY    76  62  60 SE7       29.87R
TEKAMAH        CLOUDY    72  66  81 SE6       29.86R
WAYNE          CLOUDY    72  69  91 S8        29.85R
$$

NEZ050>053-065>068-078-088>093-200300-
SOUTHEAST NEBRASKA

CITY           SKY/WX    TMP DP  RH WIND       PRES   REMARKS
LINCOLN        CLEAR     80  66  62 SE12      29.86R
OMAHA EPPLEY   MOCLDY    79  63  57 SE12      29.86S
BEATRICE       CLEAR     83  69  61 SE8       29.85S
FALLS CITY     CLEAR     77  69  76 SE7       29.87R
NEBRASKA CITY  CLEAR     77  65  65 SE8       29.88R
PLATTSMOUTH    CLEAR     74  62  64 SE7       29.87S
$$

NEZ044-045-051>053-067-200300-
OMAHA AREA

CITY           SKY/WX    TMP DP  RH WIND       PRES   REMARKS
OMAHA EPPLEY   MOCLDY    79  63  57 SE12      29.86S
BLAIR          CLEAR     75  62  62 SE6       29.88R
FREMONT        CLOUDY    76  62  60 SE7       29.87R
MILLARD        CLEAR     79  64  59 SE5       29.86S
OFFUTT AFB     PTCLDY    75  62  64 SE3       29.86R
PLATTSMOUTH    CLEAR     74  62  64 SE7       29.87S
WAHOO          FAIR      72  66  81 SE6       29.86R
$$




USA.gov is the U.S. government's official web portal to all federal, state and local government web resources and services.